Location: Madrid
(40.4000°N, 3.6830°W)
Time: 23:58:44
(UTC+02:00)

ISS - Pass Details

Date: 02 August 2020
Orbit: 418 x 420 km, 51.6° (Epoch: 08 August)

Event Time Altitude Azimuth Distance (km) Brightness Sun altitude
Rises 22:45:40 0° 303° (WNW) 2,368 2.1 -13.5°
Reaches altitude 10° 22:47:47 10° 299° (WNW) 1,502 0.4 -13.9°
Maximum altitude 22:51:05 53° 221° (SW) 518 -3.3 -14.4°
Enters shadow 22:52:35 28° 156° (SSE) 823 -2.8 -14.6°
